Location: Unspecified
(43.8561°N, 0.0000°E)
Time: 12:27:12
(UTC+00:00)

CZ-4 DEB - Visible Passes

Search period start: 04 April 2026 00:00
Search period end: 14 April 2026 00:00
Orbit: 702 x 828 km, 98.8° (Epoch: 28 March)

Date Brightness Start Highest point End Pass type
(mag) Time Alt. Az. Time Alt. Az. Time Alt. Az.
4 Apr ? 19:05:56 10° SE 19:10:31 48° ENE 19:15:15 10° N visible
4 Apr ? 20:46:15 10° SW 20:49:45 20° W 20:53:20 10° NW visible
5 Apr ? 20:07:57 10° S 20:12:31 44° W 20:17:14 10° NNW visible
6 Apr ? 19:30:42 10° SSE 19:35:30 82° ENE 19:40:29 10° NNW visible
6 Apr ? 21:13:33 10° WSW 21:15:08 11° W 21:16:45 10° WNW visible
7 Apr ? 18:54:17 10° SE 18:58:42 37° ENE 19:03:17 10° N visible
7 Apr ? 20:33:44 10° SSW 20:37:45 26° W 20:41:54 10° NW visible
8 Apr ? 19:55:50 10° S 20:00:35 59° W 20:05:32 10° NNW visible
9 Apr ? 19:18:52 10° SSE 19:23:39 63° ENE 19:28:36 10° N visible
9 Apr ? 21:00:12 10° SW 21:03:05 16° W 21:06:01 10° NW visible
10 Apr ? 20:21:22 10° SSW 20:25:46 34° W 20:30:20 10° NNW visible
11 Apr ? 19:43:49 10° S 19:48:41 77° WSW 19:53:45 10° NNW visible
12 Apr ? 19:07:07 10° SE 19:11:49 49° ENE 19:16:42 10° N visible
12 Apr ? 20:47:26 10° SW 20:51:03 21° W 20:54:47 10° NW visible
13 Apr ? 20:09:09 10° S 20:13:49 45° W 20:18:41 10° NNW visible
